User: anonymous   Login
Location: Caltech
(34.1382°N, 118.1253°W)
Time: 03:35:42
(UTC-07:00)
Language:

Iridium 49 - Orbit

View from above orbital plane
View from above orbital plane
View from above satellite
View from above satellite

Ground track
Ground track

The orbit data is extracted from the following two-line orbital elements,

1 25108U 97082E   14303.49332810  .00000367  00000-0  12402-3 0  9733
2 25108 086.3925 296.9872 0002151 106.0310 064.9076 14.34224853882673
Epoch (UTC): 30 October 2014 11:50:23
Eccentricity: 0.0002151
inclination: 86.3925°
perigee height: 776 km
apogee height: 779 km
right ascension of ascending node: 296.9872°
argument of perigee: 106.0310°
revolutions per day: 14.34224853
mean anomaly at epoch: 64.9076°
orbit number at epoch: 88267

The dashed part of the orbit path shows where the satellite is in the earth's shadow,  

DLR